Notices

What's New in latest Release from April 7th, 2021:

- Updated Glossary, including Speed of Maximum Gust, and Total Hourly Precipitation

- Updated national and regional climate services offices contacts and prices information

- Addition of station inventory lists for 1981-2010, 1971-2000, and 1961-1990 Normals.

Please note that as of June 10, 2021 UTC dates are available for all years 2004-present, and DBA is working on populating the remaining years (2003 to 1953).

If you haven't already, please take our survey and provide feedback about our website: https://eccc.sondage-survey.ca/f/LanguageSelection.aspx?s=442ca660-fcf1-47c0-95a9-59707d6fd709

Hourly Data Report for November 25, 2019

EUREKA CLIMATE
NUNAVUT
Current Station Operator: ECCC - MSC

79°59'21.000" N
85°56'02.000" W
10.00 m
2401199
71613
NEK

Download Data

Hourly Data (November 2019)
Hourly Data Report for November 25, 2019
TIME
LST
Temp Definition
°C
Dew Point Definition
°C
Rel Hum Definition
%
Precip. Amount Definition
mm

Wind Dir Definition
10's deg

Wind Spd Definition
km/h
Visibility Definition
km
Stn Press Definition
kPa
Hmdx Definition


Wind Chill Definition


Weather Definition


00:00 -27.9 -30.5 79 0.0 9 4   101.10   -32 LegendNANA
01:00 -26.5 -29.0 80 0.0 2 6   101.12   -32 LegendNANA
02:00 -24.9 -27.2 81 0.0 12 4   101.16   -29 LegendNANA
03:00 -24.6 -26.9 81 0.0 27 5   101.18   -29 LegendNANA
04:00 -24.0 -26.2 82 0.0   0   101.24     LegendNANA
05:00 -24.1 -26.3 82 0.0 7 4   101.28   -28 LegendNANA
06:00 -24.0 -26.2 82 0.0 29 3   101.31   -27 LegendNANA
07:00 -24.3 -26.6 81 0.0 27 5   101.34   -29 LegendNANA
08:00 -24.0 -26.3 81 0.0 30 7   101.35   -30 LegendNANA
09:00 -23.6 -25.9 82 0.0 1 10   101.35   -32 LegendNANA
10:00 -23.8 -26.1 81 0.0 34 8   101.38   -31 LegendNANA
11:00 -23.8 -26.1 81 0.0 33 8   101.39   -31 LegendNANA
12:00 -24.1 -26.4 81 0.0 28 7   101.39   -30 LegendNANA
13:00 -24.9 -27.4 80 0.0 28 11   101.40   -34 LegendNANA
14:00 -26.3 -28.8 79 0.0 28 11   101.42   -35 LegendNANA
15:00 -26.6 -29.1 79 0.0 29 17   101.41   -38 LegendNANA
16:00 -26.9 -29.6 78 0.0 29 4   101.44   -31 LegendNANA
17:00 -28.3 -31.3 75 0.0 2 19   101.41   -41 LegendNANA
18:00 -27.5 -30.4 76 0.0 1 20   101.44   -40 LegendNANA
19:00 -27.9 -30.8 76 0.0 35 8   101.48   -36 LegendNANA
20:00 -28.9 -32.3 73 0.0 2 11   101.53   -38 LegendNANA
21:00 -29.7 -32.7 75 0.0 1 17   101.59   -42 LegendNANA
22:00 -30.4 -33.6 73 0.0 2 13   101.66   -41 LegendNANA
23:00 -30.1 -33.2 75 0.0 7 6   101.73   -37 LegendNANA

Notes on Data Quality.

Legend

  • E = Estimated
  • M = Missing
  • NA = Not Available*
  • [empty] = Indicates an unobserved value
Date modified: